Regional Weather Roundup
Issued by NWS Raleigh/Durham, NC

Home | Current Version | Previous Version | Text Only | Print | Product List | Glossary On
Versions: 1 2 3 4 5 6 7 8 9 10 11 12 13 14 15 16 17 18 19 20 21 22 23 24 25 26 27 28 29 30 31 32 33 34 35 36 37 38 39 40 41 42 43 44 45 46 47 48 49 50
000
ASUS42 KRAH 230010
RWRRAH
NORTH CAROLINA WEATHER ROUNDUP
NATIONAL WEATHER SERVICE RALEIGH NC
800 PM EDT SUN OCT 22 2017

NOTE: "FAIR" INDICATES FEW OR NO CLOUDS BELOW 12,000 FEET WITH NO
SIGNIFICANT WEATHER AND/OR OBSTRUCTIONS TO VISIBILITY.

NCZ001-053-055-056-065-067-230100-
WESTERN NORTH CAROLINA

CITY           SKY/WX    TMP DP  RH WIND       PRES   REMARKS
ASHEVILLE      CLOUDY    66  55  67 SE6       30.27S
JEFFERSON      PTCLDY    57  51  79 CALM      30.33R
HICKORY        CLOUDY    68  57  68 NE5       30.26R
RUTHERFORDTON  CLOUDY    69  58  68 NE5       30.26S
MOUNT AIRY     PTCLDY    65  57  75 CALM      30.30S
BOONE          CLOUDY    57  50  79 E3        30.33S
$$

NCZ021-022-025-041-071-084-088-230100-
CENTRAL NORTH CAROLINA

CITY           SKY/WX    TMP DP  RH WIND       PRES   REMARKS
CHARLOTTE      CLOUDY    74  60  61 SE10      30.25R
GREENSBORO     CLOUDY    68  58  70 CALM      30.27R
WINSTON-SALEM  PTCLDY    67  56  67 CALM      30.28S
RALEIGH-DURHAM MOCLDY    66  59  78 VRB6      30.29R
FORT BRAGG     CLEAR     67  61  80 E3        30.25S
FAYETTEVILLE   CLEAR     69  62  78 E9        30.25S
BURLINGTON     PTCLDY    65  58  78 CALM      30.28R
LAURINBURG     CLOUDY    75  62  64 SE6       30.25S
$$

NCZ011-015-027-028-043-044-047-080-103-230100-
NORTHEASTERN NORTH CAROLINA

CITY           SKY/WX    TMP DP  RH WIND       PRES   REMARKS
ROCKY MT-WILSO CLOUDY    65  62  90 CALM      30.30R
GREENVILLE     CLOUDY    72  61  68 S5        30.30R
WASHINGTON     CLEAR     67  60  78 CALM      30.29S
ELIZABETH CITY PTCLDY    66  66 100 E5        30.31R
MANTEO         CLEAR    N/A N/A N/A E5        30.32R
CAPE HATTERAS  CLEAR     70  68  93 NE6       30.30S
$$

NCZ078-087-090-091-093-098-101-230100-
SOUTHEASTERN NORTH CAROLINA

CITY           SKY/WX    TMP DP  RH WIND       PRES   REMARKS
LUMBERTON      CLOUDY    73  63  70 SE7       30.25R
GOLDSBORO      MOCLDY    70  63  77 E6        30.27R HAZE
KINSTON        CLOUDY    73  63  68 E5        30.30R
KENANSVILLE    CLEAR     68  63  83 CALM      30.29R
NEW BERN       CLEAR     70  64  81 E5        30.30R
CHERRY POINT   CLEAR     67  65  93 E5        30.30R
BEAUFORT       CLOUDY    69  64  84 CALM      30.29R
JACKSONVILLE   CLEAR     68  65  90 SE3       30.28R
WILMINGTON     CLEAR     69  66  90 E5        30.26S
$$




USA.gov is the U.S. government's official web portal to all federal, state and local government web resources and services.